| time (UTC) | temp C | wind direction | speed KPH | gust KPH | rain 1hr cm | rain 24hr cm | rain mn cm | humidity % | barometer mb |
| 20260905173033 | 29 | 321 | 4.8 | 9.7 | 0.00 | 0.10 | 0.00 | 47 | 1019.4 |
| 20260905172530 | 28 | 206 | 1.6 | 11.3 | 0.00 | 0.10 | 0.00 | 48 | 1019.4 |
| 20260905172030 | 29 | 227 | 3.2 | 11.3 | 0.00 | 0.10 | 0.00 | 48 | 1019.5 |
| 20260905171528 | 28 | 240 | 1.6 | 8.0 | 0.00 | 0.10 | 0.00 | 50 | 1019.5 |
| 20260905171030 | 28 | 221 | 1.6 | 9.7 | 0.00 | 0.10 | 0.00 | 51 | 1019.5 |
| 20260905170527 | 28 | 132 | 4.8 | 9.7 | 0.00 | 0.10 | 0.00 | 50 | 1019.5 |
| 20260905170026 | 28 | 190 | 1.6 | 9.7 | 0.00 | 0.10 | 0.00 | 49 | 1019.5 |
| 20260905165525 | 28 | 200 | 3.2 | 8.0 | 0.00 | 0.10 | 0.00 | 50 | 1019.4 |
| 20260905165022 | 28 | 119 | 0.0 | 6.4 | 0.00 | 0.10 | 0.00 | 52 | 1019.5 |
| 20260905164521 | 27 | 329 | 0.0 | 8.0 | 0.00 | 0.10 | 0.00 | 55 | 1019.5 |
| 20260905164020 | 27 | 290 | 1.6 | 8.0 | 0.00 | 0.10 | 0.00 | 55 | 1019.5 |
| 20260905163519 | 27 | 297 | 0.0 | 3.2 | 0.00 | 0.10 | 0.00 | 55 | 1019.6 |
| 20260905163019 | 26 | 297 | 0.0 | 6.4 | 0.00 | 0.10 | 0.00 | 55 | 1019.6 |
| 20260905162519 | 27 | 223 | 0.0 | 6.4 | 0.00 | 0.10 | 0.00 | 57 | 1019.6 |
| 20260905162017 | 26 | 223 | 0.0 | 8.0 | 0.00 | 0.10 | 0.00 | 56 | 1019.6 |
| 20260905161515 | 26 | 269 | 0.0 | 8.0 | 0.00 | 0.10 | 0.00 | 56 | 1019.6 |
| 20260905161014 | 26 | 298 | 0.0 | 8.0 | 0.00 | 0.10 | 0.00 | 58 | 1019.6 |
| 20260905160512 | 26 | 234 | 1.6 | 8.0 | 0.00 | 0.10 | 0.00 | 58 | 1019.6 |
| 20260905160011 | 26 | 269 | 0.0 | 8.0 | 0.00 | 0.10 | 0.00 | 58 | 1019.6 |
| 20260905155512 | 26 | 197 | 3.2 | 8.0 | 0.00 | 0.10 | 0.00 | 59 | 1019.6 |
| 20260905155008 | 26 | 242 | 1.6 | 8.0 | 0.00 | 0.10 | 0.00 | 59 | 1019.6 |
| 20260905154506 | 25 | 228 | 3.2 | 8.0 | 0.00 | 0.10 | 0.00 | 60 | 1019.6 |
| 20260905154005 | 25 | 195 | 1.6 | 8.0 | 0.00 | 0.10 | 0.00 | 61 | 1019.6 |
| 20260905153504 | 25 | 180 | 3.2 | 8.0 | 0.00 | 0.10 | 0.00 | 60 | 1019.6 |
| 20260905153002 | 25 | 172 | 1.6 | 9.7 | 0.00 | 0.10 | 0.00 | 61 | 1019.7 |
| 20260905152501 | 25 | 192 | 1.6 | 9.7 | 0.00 | 0.10 | 0.00 | 62 | 1019.6 |
| 20260905152104 | 25 | 205 | 1.6 | 8.0 | 0.00 | 0.10 | 0.00 | 61 | 1019.6 |
| 20260905151608 | 25 | 195 | 1.6 | 9.7 | 0.00 | 0.10 | 0.00 | 62 | 1019.6 |
| 20260905151059 | 25 | 181 | 1.6 | 9.7 | 0.00 | 0.10 | 0.00 | 63 | 1019.6 |
| 20260905150557 | 25 | 220 | 0.0 | 8.0 | 0.00 | 0.10 | 0.00 | 63 | 1019.6 |
| 20260905150057 | 24 | 220 | 1.6 | 8.0 | 0.00 | 0.10 | 0.00 | 64 | 1019.5 |
| 20260905145556 | 24 | 155 | 3.2 | 9.7 | 0.00 | 0.10 | 0.00 | 66 | 1019.5 |
| 20260905145054 | 24 | 172 | 3.2 | 9.7 | 0.00 | 0.10 | 0.00 | 65 | 1019.6 |
| 20260905144554 | 24 | 131 | 6.4 | 11.3 | 0.00 | 0.10 | 0.00 | 65 | 1019.5 |
| 20260905144052 | 23 | 125 | 3.2 | 12.9 | 0.00 | 0.10 | 0.00 | 67 | 1019.5 |
| 20260905143551 | 23 | 148 | 4.8 | 12.9 | 0.00 | 0.10 | 0.00 | 68 | 1019.5 |
| 20260905143050 | 23 | 156 | 3.2 | 9.7 | 0.00 | 0.10 | 0.00 | 69 | 1019.5 |
| 20260905142550 | 23 | 172 | 4.8 | 9.7 | 0.00 | 0.10 | 0.00 | 69 | 1019.5 |
| 20260905142053 | 23 | 215 | 1.6 | 11.3 | 0.00 | 0.10 | 0.00 | 69 | 1019.5 |
| 20260905141548 | 23 | 185 | 4.8 | 9.7 | 0.00 | 0.10 | 0.00 | 69 | 1019.4 |
| 20260905141050 | 23 | 128 | 4.8 | 9.7 | 0.00 | 0.10 | 0.00 | 69 | 1019.4 |
| 20260905140546 | 22 | 163 | 3.2 | 9.7 | 0.00 | 0.10 | 0.00 | 70 | 1019.3 |
| 20260905140048 | 22 | 167 | 4.8 | 12.9 | 0.00 | 0.10 | 0.00 | 69 | 1019.3 |
| 20260905135545 | 22 | 161 | 3.2 | 12.9 | 0.00 | 0.13 | 0.00 | 70 | 1019.3 |
| 20260905135042 | 22 | 148 | 3.2 | 9.7 | 0.00 | 0.13 | 0.00 | 71 | 1019.2 |
| 20260905134541 | 22 | 142 | 4.8 | 11.3 | 0.00 | 0.13 | 0.00 | 71 | 1019.2 |
| 20260905134040 | 22 | 134 | 4.8 | 11.3 | 0.00 | 0.13 | 0.00 | 71 | 1019.1 |
| 20260905133538 | 22 | 150 | 6.4 | 9.7 | 0.00 | 0.13 | 0.00 | 72 | 1019.0 |
| 20260905133044 | 22 | 126 | 3.2 | 9.7 | 0.00 | 0.13 | 0.00 | 72 | 1019.0 |
| 20260905132537 | 21 | 126 | 4.8 | 9.7 | 0.00 | 0.13 | 0.00 | 72 | 1019.0 |
| 20260905132036 | 21 | 133 | 3.2 | 9.7 | 0.00 | 0.13 | 0.00 | 73 | 1019.0 |
| 20260905131541 | 21 | 118 | 1.6 | 8.0 | 0.00 | 0.13 | 0.00 | 73 | 1018.9 |
| 20260905131036 | 21 | 120 | 4.8 | 9.7 | 0.00 | 0.13 | 0.00 | 73 | 1018.9 |
| 20260905130534 | 21 | 138 | 4.8 | 9.7 | 0.00 | 0.13 | 0.00 | 73 | 1018.8 |
| 20260905130033 | 21 | 142 | 1.6 | 6.4 | 0.00 | 0.13 | 0.00 | 72 | 1018.8 |
| 20260905125532 | 21 | 146 | 0.0 | 6.4 | 0.00 | 0.20 | 0.00 | 72 | 1018.7 |
| 20260905125031 | 21 | 139 | 0.0 | 9.7 | 0.00 | 0.20 | 0.00 | 71 | 1018.7 |
| 20260905124534 | 21 | 148 | 4.8 | 8.0 | 0.00 | 0.20 | 0.00 | 71 | 1018.6 |
| 20260905124032 | 21 | 147 | 1.6 | 6.4 | 0.00 | 0.20 | 0.00 | 70 | 1018.6 |
| 20260905123531 | 21 | 144 | 1.6 | 6.4 | 0.00 | 0.20 | 0.00 | 70 | 1018.5 |
| 20260905123028 | 21 | 152 | 1.6 | 6.4 | 0.00 | 0.20 | 0.00 | 70 | 1018.5 |
| 20260905122528 | 21 | 152 | 1.6 | 4.8 | 0.00 | 0.20 | 0.00 | 70 | 1018.5 |
| 20260905122028 | 21 | 152 | 0.0 | 6.4 | 0.00 | 0.20 | 0.00 | 69 | 1018.4 |
| 20260905121527 | 21 | 152 | 0.0 | 9.7 | 0.00 | 0.20 | 0.00 | 69 | 1018.5 |
| 20260905121028 | 21 | 168 | 1.6 | 9.7 | 0.00 | 0.20 | 0.00 | 69 | 1018.5 |
| 20260905120527 | 21 | 146 | 1.6 | 8.0 | 0.00 | 0.20 | 0.00 | 69 | 1018.4 |
| 20260905120026 | 21 | 165 | 1.6 | 11.3 | 0.00 | 0.20 | 0.00 | 69 | 1018.4 |
| 20260905115526 | 21 | 151 | 1.6 | 11.3 | 0.00 | 0.23 | 0.00 | 69 | 1018.4 |
| 20260905115027 | 21 | 159 | 3.2 | 11.3 | 0.00 | 0.23 | 0.00 | 69 | 1018.4 |
| 20260905114524 | 21 | 171 | 0.0 | 12.9 | 0.00 | 0.23 | 0.00 | 68 | 1018.3 |
| 20260905114023 | 21 | 172 | 4.8 | 12.9 | 0.00 | 0.23 | 0.00 | 68 | 1018.3 |
| 20260905113523 | 21 | 178 | 3.2 | 8.0 | 0.00 | 0.23 | 0.00 | 69 | 1018.4 |
| 20260905113022 | 21 | 194 | 1.6 | 8.0 | 0.00 | 0.23 | 0.00 | 70 | 1018.3 |
| 20260905112522 | 21 | 194 | 1.6 | 8.0 | 0.00 | 0.23 | 0.00 | 69 | 1018.2 |
| 20260905112024 | 21 | 41 | 0.0 | 3.2 | 0.00 | 0.23 | 0.00 | 71 | 1018.2 |
| 20260905111529 | 21 | 41 | 0.0 | 3.2 | 0.00 | 0.23 | 0.00 | 69 | 1018.1 |
| 20260905111022 | 21 | 41 | 1.6 | 3.2 | 0.00 | 0.23 | 0.00 | 68 | 1018.1 |
| 20260905110519 | 21 | 41 | 0.0 | 1.6 | 0.00 | 0.23 | 0.00 | 68 | 1017.9 |
| 20260905110034 | 21 | 41 | 0.0 | 6.4 | 0.00 | 0.23 | 0.00 | 70 | 1018.0 |
| 20260905105520 | 21 | 41 | 1.6 | 4.8 | 0.00 | 0.25 | 0.00 | 70 | 1018.0 |
| 20260905105020 | 21 | 41 | 0.0 | 3.2 | 0.00 | 0.25 | 0.00 | 70 | 1018.0 |
| 20260905104521 | 21 | 41 | 0.0 | 1.6 | 0.00 | 0.25 | 0.00 | 70 | 1018.0 |
| 20260905104017 | 21 | 41 | 0.0 | 0.0 | 0.00 | 0.25 | 0.00 | 69 | 1017.9 |
| 20260905103519 | 21 | 41 | 0.0 | 0.0 | 0.00 | 0.25 | 0.00 | 70 | 1017.9 |
| 20260905103017 | 21 | 41 | 0.0 | 0.0 | 0.00 | 0.25 | 0.00 | 70 | 1017.8 |
| 20260905102520 | 21 | 41 | 0.0 | 0.0 | 0.00 | 0.25 | 0.00 | 69 | 1017.7 |
| 20260905102016 | 21 | 41 | 0.0 | 1.6 | 0.00 | 0.25 | 0.00 | 69 | 1017.7 |
| 20260905101516 | 21 | 41 | 0.0 | 1.6 | 0.00 | 0.25 | 0.00 | 68 | 1017.7 |
| 20260905101015 | 22 | 41 | 0.0 | 1.6 | 0.00 | 0.25 | 0.00 | 69 | 1017.6 |
| 20260905100515 | 21 | 41 | 0.0 | 1.6 | 0.00 | 0.25 | 0.00 | 70 | 1017.6 |
| 20260905100015 | 21 | 41 | 0.0 | 0.0 | 0.00 | 0.25 | 0.00 | 70 | 1017.7 |
| 20260905095519 | 21 | 41 | 0.0 | 1.6 | 0.00 | 0.25 | 0.00 | 70 | 1017.7 |
| 20260905095016 | 22 | 41 | 0.0 | 1.6 | 0.00 | 0.25 | 0.00 | 70 | 1017.7 |
| 20260905094514 | 22 | 41 | 0.0 | 0.0 | 0.00 | 0.25 | 0.00 | 69 | 1017.6 |
| 20260905094012 | 22 | 41 | 0.0 | 1.6 | 0.00 | 0.25 | 0.00 | 68 | 1017.5 |
| 20260905093512 | 22 | 41 | 0.0 | 3.2 | 0.00 | 0.25 | 0.00 | 66 | 1017.5 |
| 20260905093015 | 22 | 41 | 0.0 | 3.2 | 0.00 | 0.25 | 0.00 | 66 | 1017.5 |
| 20260905092511 | 22 | 41 | 0.0 | 1.6 | 0.00 | 0.25 | 0.00 | 66 | 1017.5 |
| 20260905092011 | 22 | 41 | 0.0 | 3.2 | 0.00 | 0.25 | 0.00 | 67 | 1017.5 |
| 20260905091514 | 22 | 41 | 0.0 | 3.2 | 0.00 | 0.25 | 0.00 | 67 | 1017.4 |
| 20260905091010 | 22 | 1 | 0.0 | 3.2 | 0.00 | 0.25 | 0.00 | 69 | 1017.5 |
| 20260905090509 | 22 | 1 | 0.0 | 1.6 | 0.00 | 0.25 | 0.00 | 67 | 1017.5 |
| 20260905090016 | 22 | 1 | 0.0 | 1.6 | 0.00 | 0.25 | 0.00 | 67 | 1017.5 |
| 20260905085509 | 22 | 1 | 0.0 | 1.6 | 0.00 | 0.25 | 0.00 | 67 | 1017.5 |
| 20260905085008 | 22 | 1 | 0.0 | 1.6 | 0.00 | 0.25 | 0.00 | 66 | 1017.5 |
| 20260905084508 | 22 | 1 | 0.0 | 3.2 | 0.00 | 0.25 | 0.00 | 66 | 1017.6 |
| 20260905084007 | 22 | 1 | 0.0 | 3.2 | 0.00 | 0.25 | 0.00 | 68 | 1017.6 |
| 20260905083507 | 22 | 1 | 0.0 | 3.2 | 0.00 | 0.25 | 0.00 | 68 | 1017.6 |
| 20260905083007 | 23 | 1 | 0.0 | 3.2 | 0.00 | 0.25 | 0.00 | 67 | 1017.5 |
| 20260905082506 | 23 | 1 | 0.0 | 1.6 | 0.00 | 0.25 | 0.00 | 66 | 1017.5 |
| 20260905082008 | 23 | 1 | 0.0 | 1.6 | 0.00 | 0.25 | 0.00 | 68 | 1017.5 |
| 20260905081505 | 23 | 1 | 0.0 | 1.6 | 0.00 | 0.25 | 0.00 | 67 | 1017.6 |
| 20260905081006 | 23 | 1 | 0.0 | 1.6 | 0.00 | 0.25 | 0.00 | 65 | 1017.5 |
| 20260905080503 | 23 | 1 | 0.0 | 0.0 | 0.00 | 0.25 | 0.00 | 66 | 1017.5 |
| 20260905080004 | 23 | 1 | 0.0 | 3.2 | 0.00 | 0.25 | 0.00 | 64 | 1017.5 |
| 20260905075502 | 23 | 1 | 0.0 | 3.2 | 0.00 | 0.25 | 0.00 | 62 | 1017.5 |
| 20260905075003 | 23 | 1 | 0.0 | 3.2 | 0.00 | 0.25 | 0.00 | 62 | 1017.6 |
| 20260905074501 | 23 | 1 | 1.6 | 6.4 | 0.00 | 0.25 | 0.00 | 63 | 1017.6 |
| 20260905074000 | 23 | 1 | 1.6 | 4.8 | 0.00 | 0.25 | 0.00 | 64 | 1017.7 |
| 20260905073602 | 23 | 1 | 0.0 | 1.6 | 0.00 | 0.25 | 0.00 | 65 | 1017.7 |
| 20260905073101 | 23 | 1 | 0.0 | 1.6 | 0.00 | 0.25 | 0.00 | 65 | 1017.7 |
| 20260905072558 | 23 | 1 | 0.0 | 3.2 | 0.00 | 0.25 | 0.00 | 63 | 1017.8 |
| 20260905072059 | 24 | 1 | 0.0 | 3.2 | 0.00 | 0.25 | 0.00 | 62 | 1017.8 |
| 20260905071558 | 24 | 1 | 0.0 | 8.0 | 0.00 | 0.25 | 0.00 | 61 | 1017.8 |
| 20260905071058 | 24 | 1 | 1.6 | 8.0 | 0.00 | 0.25 | 0.00 | 61 | 1017.7 |
| 20260905070555 | 24 | 1 | 1.6 | 4.8 | 0.00 | 0.25 | 0.00 | 61 | 1017.9 |
| 20260905070055 | 24 | 1 | 3.2 | 6.4 | 0.00 | 0.25 | 0.00 | 61 | 1017.8 |
| 20260905065554 | 24 | 56 | 0.0 | 6.4 | 0.00 | 0.25 | 0.00 | 59 | 1017.8 |
| 20260905065054 | 25 | 56 | 0.0 | 3.2 | 0.00 | 0.25 | 0.00 | 60 | 1017.7 |
| 20260905064552 | 25 | 56 | 0.0 | 3.2 | 0.00 | 0.25 | 0.00 | 58 | 1017.7 |
| 20260905064051 | 25 | 56 | 0.0 | 3.2 | 0.00 | 0.25 | 0.00 | 58 | 1017.7 |
| 20260905063551 | 25 | 56 | 0.0 | 6.4 | 0.00 | 0.25 | 0.00 | 58 | 1017.7 |
| 20260905063055 | 25 | 56 | 0.0 | 6.4 | 0.00 | 0.25 | 0.00 | 57 | 1017.7 |
| 20260905062551 | 25 | 38 | 0.0 | 1.6 | 0.00 | 0.25 | 0.00 | 58 | 1017.7 |
| 20260905062049 | 25 | 38 | 0.0 | 1.6 | 0.00 | 0.25 | 0.00 | 57 | 1017.7 |
| 20260905061556 | 25 | 38 | 0.0 | 3.2 | 0.00 | 0.25 | 0.00 | 57 | 1017.8 |
| 20260905061049 | 25 | 38 | 0.0 | 6.4 | 0.00 | 0.25 | 0.00 | 56 | 1017.8 |
| 20260905060546 | 25 | 38 | 0.0 | 6.4 | 0.00 | 0.25 | 0.00 | 55 | 1017.7 |
| 20260905060045 | 25 | 13 | 0.0 | 6.4 | 0.00 | 0.25 | 0.00 | 55 | 1017.7 |
| 20260905055545 | 25 | 47 | 0.0 | 8.0 | 0.00 | 0.25 | 0.25 | 55 | 1017.7 |
| 20260905055048 | 25 | 36 | 0.0 | 8.0 | 0.00 | 0.25 | 0.25 | 56 | 1017.7 |
| 20260905054545 | 25 | 32 | 1.6 | 4.8 | 0.00 | 0.25 | 0.25 | 56 | 1017.7 |
| 20260905054044 | 25 | 69 | 1.6 | 6.4 | 0.00 | 0.25 | 0.25 | 56 | 1017.7 |
| 20260905053545 | 25 | 30 | 0.0 | 3.2 | 0.00 | 0.25 | 0.25 | 56 | 1017.8 |
| 20260905053044 | 25 | 52 | 0.0 | 6.4 | 0.00 | 0.25 | 0.25 | 57 | 1017.8 |
| 20260905052543 | 25 | 45 | 1.6 | 4.8 | 0.00 | 0.25 | 0.25 | 56 | 1017.8 |
| 20260905052043 | 25 | 33 | 0.0 | 3.2 | 0.00 | 0.25 | 0.25 | 57 | 1017.8 |
| 20260905051545 | 25 | 33 | 0.0 | 3.2 | 0.00 | 0.25 | 0.25 | 57 | 1017.8 |
| 20260905051043 | 25 | 33 | 0.0 | 8.0 | 0.00 | 0.25 | 0.25 | 57 | 1017.7 |
| 20260905050543 | 25 | 38 | 0.0 | 8.0 | 0.00 | 0.25 | 0.25 | 56 | 1017.7 |
| 20260905050043 | 25 | 22 | 1.6 | 8.0 | 0.00 | 0.25 | 0.25 | 57 | 1017.7 |
| 20260905045542 | 25 | 36 | 1.6 | 4.8 | 0.00 | 0.25 | 0.25 | 58 | 1017.8 |
| 20260905045042 | 25 | 8 | 1.6 | 6.4 | 0.00 | 0.25 | 0.25 | 57 | 1017.9 |
| 20260905044541 | 26 | 355 | 1.6 | 8.0 | 0.00 | 0.25 | 0.25 | 59 | 1017.9 |
| 20260905044041 | 26 | 346 | 1.6 | 8.0 | 0.00 | 0.25 | 0.25 | 58 | 1017.9 |
| 20260905043543 | 26 | 9 | 0.0 | 8.0 | 0.00 | 0.25 | 0.25 | 58 | 1017.9 |
| 20260905043052 | 26 | 353 | 3.2 | 6.4 | 0.00 | 0.25 | 0.25 | 57 | 1017.9 |
| 20260905042541 | 26 | 15 | 1.6 | 4.8 | 0.00 | 0.25 | 0.25 | 58 | 1017.9 |
| 20260905042043 | 25 | 347 | 1.6 | 6.4 | 0.00 | 0.25 | 0.25 | 58 | 1017.9 |
| 20260905041541 | 25 | 347 | 0.0 | 3.2 | 0.00 | 0.25 | 0.25 | 59 | 1017.8 |
| 20260905041040 | 25 | 347 | 0.0 | 1.6 | 0.00 | 0.25 | 0.25 | 63 | 1017.8 |
| 20260905040540 | 25 | 347 | 0.0 | 1.6 | 0.00 | 0.25 | 0.25 | 61 | 1017.8 |
| 20260905040043 | 25 | 347 | 0.0 | 0.0 | 0.00 | 0.25 | 0.25 | 61 | 1017.7 |
| 20260905035543 | 25 | 347 | 0.0 | 1.6 | 0.00 | 0.25 | 0.25 | 67 | 1017.7 |
| 20260905035043 | 25 | 347 | 0.0 | 1.6 | 0.00 | 0.25 | 0.25 | 66 | 1017.7 |
| 20260905034550 | 25 | 347 | 0.0 | 0.0 | 0.00 | 0.25 | 0.25 | 67 | 1017.6 |
| 20260905034038 | 25 | 347 | 0.0 | 0.0 | 0.00 | 0.25 | 0.25 | 66 | 1017.5 |
| 20260905033540 | 25 | 347 | 0.0 | 1.6 | 0.00 | 0.25 | 0.25 | 66 | 1017.5 |
| 20260905033107 | 26 | 347 | 0.0 | 1.6 | 0.00 | 0.25 | 0.25 | 65 | 1017.4 |
| 20260905032538 | 26 | 347 | 0.0 | 0.0 | 0.00 | 0.25 | 0.25 | 64 | 1017.4 |
| 20260905032038 | 26 | 347 | 0.0 | 3.2 | 0.00 | 0.25 | 0.25 | 62 | 1017.4 |
| 20260905031550 | 26 | 347 | 0.0 | 3.2 | 0.00 | 0.25 | 0.25 | 60 | 1017.4 |
| 20260905031036 | 26 | 347 | 0.0 | 3.2 | 0.00 | 0.25 | 0.25 | 61 | 1017.3 |
| 20260905030535 | 26 | 347 | 1.6 | 3.2 | 0.00 | 0.25 | 0.25 | 62 | 1017.3 |
| 20260905030050 | 26 | 347 | 0.0 | 6.4 | 0.00 | 0.25 | 0.25 | 61 | 1017.3 |
| 20260905025535 | 26 | 347 | 1.6 | 6.4 | 0.00 | 0.25 | 0.25 | 59 | 1017.2 |
| 20260905025034 | 26 | 347 | 0.0 | 6.4 | 0.00 | 0.25 | 0.25 | 57 | 1017.2 |
| 20260905024534 | 26 | 347 | 1.6 | 6.4 | 0.00 | 0.25 | 0.25 | 57 | 1017.1 |
| 20260905024034 | 26 | 350 | 1.6 | 6.4 | 0.00 | 0.25 | 0.25 | 57 | 1017.0 |
| 20260905023534 | 26 | 348 | 0.0 | 6.4 | 0.00 | 0.25 | 0.25 | 57 | 1017.0 |
| 20260905023035 | 26 | 348 | 0.0 | 6.4 | 0.00 | 0.25 | 0.25 | 57 | 1017.0 |
| 20260905022533 | 26 | 348 | 0.0 | 6.4 | 0.00 | 0.25 | 0.25 | 58 | 1016.9 |
| 20260905022034 | 26 | 348 | 1.6 | 4.8 | 0.00 | 0.25 | 0.25 | 57 | 1016.9 |
| 20260905021534 | 26 | 346 | 1.6 | 8.0 | 0.03 | 0.25 | 0.25 | 56 | 1016.9 |
| 20260905021033 | 26 | 342 | 1.6 | 8.0 | 0.03 | 0.25 | 0.25 | 57 | 1016.9 |
| 20260905020533 | 26 | 348 | 1.6 | 8.0 | 0.03 | 0.25 | 0.25 | 58 | 1016.8 |
| 20260905020038 | 26 | 336 | 1.6 | 6.4 | 0.03 | 0.25 | 0.25 | 60 | 1016.7 |
| 20260905015533 | 26 | 300 | 1.6 | 4.8 | 0.10 | 0.25 | 0.25 | 61 | 1016.7 |
| 20260905015032 | 26 | 358 | 1.6 | 6.4 | 0.10 | 0.25 | 0.25 | 62 | 1016.5 |
| 20260905014531 | 26 | 352 | 1.6 | 4.8 | 0.10 | 0.25 | 0.25 | 63 | 1016.6 |
| 20260905014033 | 26 | 352 | 1.6 | 9.7 | 0.10 | 0.25 | 0.25 | 61 | 1016.5 |
| 20260905013532 | 26 | 354 | 1.6 | 9.7 | 0.10 | 0.25 | 0.25 | 64 | 1016.4 |
| 20260905013031 | 26 | 348 | 3.2 | 9.7 | 0.10 | 0.25 | 0.25 | 63 | 1016.4 |
| 20260905012532 | 25 | 1 | 1.6 | 9.7 | 0.10 | 0.25 | 0.25 | 67 | 1016.3 |
| 20260905012032 | 25 | 345 | 4.8 | 11.3 | 0.10 | 0.25 | 0.25 | 68 | 1016.3 |
| 20260905011536 | 25 | 360 | 3.2 | 12.9 | 0.08 | 0.23 | 0.23 | 70 | 1016.3 |
| 20260905011031 | 25 | 13 | 6.4 | 14.5 | 0.08 | 0.23 | 0.23 | 73 | 1016.3 |
| 20260905010531 | 25 | 350 | 8.0 | 17.7 | 0.08 | 0.23 | 0.23 | 68 | 1016.4 |
| 20260905010033 | 26 | 296 | 9.7 | 19.3 | 0.08 | 0.23 | 0.23 | 63 | 1016.5 |
| 20260905005531 | 28 | 312 | 9.7 | 20.9 | 0.00 | 0.15 | 0.15 | 53 | 1016.3 |
| 20260905005031 | 28 | 335 | 11.3 | 20.9 | 0.00 | 0.15 | 0.15 | 48 | 1016.3 |
| 20260905004530 | 28 | 330 | 9.7 | 22.5 | 0.00 | 0.15 | 0.15 | 48 | 1016.3 |
| 20260905004029 | 29 | 336 | 14.5 | 22.5 | 0.00 | 0.15 | 0.15 | 46 | 1016.3 |
| 20260905003529 | 29 | 319 | 8.0 | 22.5 | 0.00 | 0.15 | 0.15 | 46 | 1016.3 |
| 20260905003033 | 30 | 320 | 9.7 | 20.9 | 0.00 | 0.15 | 0.15 | 45 | 1016.2 |
| 20260905002529 | 30 | 311 | 8.0 | 20.9 | 0.00 | 0.15 | 0.15 | 42 | 1016.2 |
| 20260905002029 | 31 | 313 | 11.3 | 20.9 | 0.00 | 0.15 | 0.15 | 40 | 1016.1 |
| 20260905001529 | 32 | 218 | 3.2 | 11.3 | 0.00 | 0.15 | 0.15 | 36 | 1016.0 |
| 20260905001029 | 32 | 226 | 4.8 | 11.3 | 0.00 | 0.15 | 0.15 | 36 | 1015.8 |
| 20260905000529 | 32 | 258 | 4.8 | 11.3 | 0.00 | 0.15 | 0.15 | 36 | 1015.9 |
| 20260905000028 | 32 | 300 | 4.8 | 11.3 | 0.00 | 0.15 | 0.15 | 35 | 1015.8 |
| 20260904235528 | 32 | 319 | 3.2 | 11.3 | 0.00 | 0.15 | 0.15 | 35 | 1015.8 |
| 20260904235028 | 32 | 321 | 4.8 | 11.3 | 0.00 | 0.15 | 0.15 | 34 | 1015.8 |
| 20260904234527 | 32 | 234 | 4.8 | 11.3 | 0.00 | 0.15 | 0.15 | 35 | 1015.8 |
| 20260904234028 | 32 | 240 | 4.8 | 11.3 | 0.00 | 0.15 | 0.15 | 36 | 1015.8 |
| 20260904233528 | 32 | 184 | 3.2 | 11.3 | 0.00 | 0.15 | 0.15 | 36 | 1015.8 |
| 20260904233030 | 32 | 254 | 8.0 | 12.9 | 0.00 | 0.15 | 0.15 | 36 | 1015.8 |
| 20260904232526 | 32 | 249 | 8.0 | 12.9 | 0.00 | 0.15 | 0.15 | 36 | 1015.8 |
| 20260904232028 | 32 | 246 | 3.2 | 9.7 | 0.00 | 0.15 | 0.15 | 37 | 1015.9 |
| 20260904231535 | 32 | 346 | 3.2 | 12.9 | 0.00 | 0.15 | 0.15 | 36 | 1015.9 |
| 20260904231026 | 32 | 310 | 6.4 | 16.1 | 0.00 | 0.15 | 0.15 | 37 | 1016.0 |
| 20260904230526 | 32 | 165 | 1.6 | 16.1 | 0.00 | 0.15 | 0.15 | 37 | 1015.9 |
| 20260904230042 | 32 | 281 | 9.7 | 14.5 | 0.00 | 0.15 | 0.15 | 37 | 1015.9 |
| 20260904225527 | 32 | 281 | 3.2 | 12.9 | 0.00 | 0.15 | 0.15 | 36 | 1015.9 |
| 20260904225026 | 32 | 250 | 6.4 | 12.9 | 0.00 | 0.15 | 0.15 | 36 | 1015.8 |
| 20260904224525 | 32 | 195 | 1.6 | 8.0 | 0.00 | 0.15 | 0.15 | 38 | 1015.8 |
| 20260904224025 | 32 | 119 | 0.0 | 9.7 | 0.00 | 0.15 | 0.15 | 38 | 1015.8 |
| 20260904223524 | 32 | 109 | 3.2 | 8.0 | 0.00 | 0.15 | 0.15 | 39 | 1015.9 |
| 20260904223024 | 31 | 112 | 1.6 | 8.0 | 0.00 | 0.15 | 0.15 | 41 | 1015.9 |
| 20260904222522 | 31 | 334 | 3.2 | 11.3 | 0.00 | 0.15 | 0.15 | 40 | 1016.0 |
| 20260904222022 | 31 | 348 | 4.8 | 11.3 | 0.00 | 0.15 | 0.15 | 40 | 1016.1 |
| 20260904221521 | 32 | 324 | 1.6 | 6.4 | 0.00 | 0.15 | 0.15 | 40 | 1016.2 |
| 20260904221022 | 32 | 18 | 0.0 | 6.4 | 0.00 | 0.15 | 0.15 | 40 | 1016.2 |
| 20260904220521 | 31 | 169 | 0.0 | 3.2 | 0.00 | 0.15 | 0.15 | 42 | 1016.3 |
| 20260904220021 | 31 | 169 | 0.0 | 8.0 | 0.00 | 0.15 | 0.15 | 41 | 1016.4 |
| 20260904215521 | 31 | 240 | 1.6 | 8.0 | 0.00 | 0.15 | 0.15 | 41 | 1016.5 |
| 20260904215019 | 31 | 311 | 0.0 | 9.7 | 0.00 | 0.15 | 0.15 | 41 | 1016.5 |
| 20260904214620 | 31 | 307 | 1.6 | 11.3 | 0.00 | 0.15 | 0.15 | 41 | 1016.5 |
| 20260904214019 | 32 | 334 | 3.2 | 11.3 | 0.00 | 0.15 | 0.15 | 39 | 1016.5 |
| 20260904213518 | 32 | 30 | 0.0 | 12.9 | 0.00 | 0.15 | 0.15 | 39 | 1016.6 |
| 20260904213027 | 32 | 178 | 6.4 | 12.9 | 0.00 | 0.15 | 0.15 | 40 | 1016.8 |
| 20260904212517 | 32 | 260 | 6.4 | 12.9 | 0.00 | 0.15 | 0.15 | 40 | 1016.8 |
| 20260904212017 | 32 | 225 | 4.8 | 12.9 | 0.00 | 0.15 | 0.15 | 40 | 1016.8 |
| 20260904211515 | 32 | 281 | 1.6 | 9.7 | 0.00 | 0.15 | 0.15 | 40 | 1016.8 |
| 20260904211015 | 31 | 31 | 1.6 | 12.9 | 0.00 | 0.15 | 0.15 | 40 | 1016.8 |
| 20260904210515 | 32 | 199 | 3.2 | 12.9 | 0.00 | 0.15 | 0.15 | 40 | 1016.9 |
| 20260904210014 | 32 | 300 | 6.4 | 12.9 | 0.00 | 0.15 | 0.15 | 41 | 1017.0 |
| 20260904205513 | 32 | 169 | 6.4 | 12.9 | 0.00 | 0.15 | 0.15 | 40 | 1017.0 |
| 20260904205012 | 32 | 355 | 1.6 | 16.1 | 0.00 | 0.15 | 0.15 | 39 | 1017.0 |
| 20260904204521 | 32 | 248 | 4.8 | 16.1 | 0.00 | 0.15 | 0.15 | 40 | 1017.1 |
| 20260904204012 | 31 | 232 | 3.2 | 9.7 | 0.00 | 0.15 | 0.15 | 42 | 1017.3 |
| 20260904203510 | 31 | 171 | 3.2 | 8.0 | 0.00 | 0.15 | 0.15 | 41 | 1017.3 |
| 20260904203016 | 31 | 315 | 1.6 | 16.1 | 0.00 | 0.15 | 0.15 | 43 | 1017.5 |
| 20260904202512 | 31 | 182 | 8.0 | 16.1 | 0.00 | 0.15 | 0.15 | 43 | 1017.4 |
| 20260904202010 | 31 | 292 | 3.2 | 14.5 | 0.00 | 0.15 | 0.15 | 43 | 1017.6 |
| 20260904201508 | 31 | 244 | 6.4 | 14.5 | 0.00 | 0.15 | 0.15 | 42 | 1017.7 |
| 20260904201008 | 31 | 265 | 6.4 | 16.1 | 0.00 | 0.15 | 0.15 | 44 | 1017.8 |
| 20260904200509 | 31 | 164 | 6.4 | 16.1 | 0.00 | 0.15 | 0.15 | 42 | 1017.8 |
| 20260904200007 | 31 | 169 | 6.4 | 16.1 | 0.00 | 0.15 | 0.15 | 43 | 1017.8 |
| 20260904195507 | 30 | 184 | 4.8 | 20.9 | 0.00 | 0.15 | 0.15 | 44 | 1017.8 |
| 20260904195007 | 30 | 159 | 4.8 | 20.9 | 0.00 | 0.15 | 0.15 | 44 | 1017.9 |
| 20260904194507 | 31 | 186 | 6.4 | 16.1 | 0.00 | 0.15 | 0.15 | 44 | 1018.1 |
| 20260904194006 | 31 | 173 | 8.0 | 16.1 | 0.00 | 0.15 | 0.15 | 45 | 1018.1 |
| 20260904193504 | 30 | 165 | 0.0 | 6.4 | 0.00 | 0.15 | 0.15 | 45 | 1018.2 |
| 20260904193003 | 30 | 215 | 1.6 | 12.9 | 0.00 | 0.15 | 0.15 | 45 | 1018.2 |
| 20260904192503 | 30 | 300 | 1.6 | 12.9 | 0.00 | 0.15 | 0.15 | 46 | 1018.3 |
| 20260904192003 | 30 | 236 | 4.8 | 16.1 | 0.00 | 0.15 | 0.15 | 45 | 1018.4 |
| 20260904191502 | 30 | 315 | 4.8 | 14.5 | 0.00 | 0.15 | 0.15 | 45 | 1018.5 |
| 20260904191001 | 29 | 237 | 0.0 | 11.3 | 0.00 | 0.15 | 0.15 | 48 | 1018.5 |
| 20260904190501 | 29 | 211 | 6.4 | 11.3 | 0.00 | 0.15 | 0.15 | 49 | 1018.6 |
| 20260904190002 | 29 | 254 | 4.8 | 14.5 | 0.00 | 0.15 | 0.15 | 50 | 1018.7 |
| 20260904185601 | 28 | 241 | 3.2 | 14.5 | 0.00 | 0.15 | 0.15 | 51 | 1018.8 |
| 20260904185104 | 29 | 246 | 8.0 | 14.5 | 0.00 | 0.15 | 0.15 | 49 | 1018.9 |
| 20260904184600 | 29 | 202 | 8.0 | 11.3 | 0.00 | 0.15 | 0.15 | 49 | 1018.9 |
| 20260904184059 | 29 | 123 | 1.6 | 8.0 | 0.00 | 0.15 | 0.15 | 48 | 1019.0 |
| 20260904183601 | 28 | 345 | 0.0 | 12.9 | 0.00 | 0.15 | 0.15 | 50 | 1019.1 |
| 20260904183115 | 28 | 238 | 4.8 | 12.9 | 0.00 | 0.15 | 0.15 | 49 | 1019.3 |
| 20260904182558 | 28 | 161 | 6.4 | 12.9 | 0.00 | 0.15 | 0.15 | 50 | 1019.3 |
| 20260904182056 | 28 | 196 | 3.2 | 12.9 | 0.00 | 0.15 | 0.15 | 52 | 1019.4 |
| 20260904181556 | 28 | 178 | 1.6 | 12.9 | 0.00 | 0.15 | 0.15 | 53 | 1019.5 |
| 20260904181056 | 28 | 294 | 0.0 | 8.0 | 0.00 | 0.15 | 0.15 | 52 | 1019.5 |
| 20260904180556 | 29 | 100 | 1.6 | 4.8 | 0.00 | 0.15 | 0.15 | 53 | 1019.6 |
| 20260904180058 | 28 | 102 | 1.6 | 14.5 | 0.00 | 0.15 | 0.15 | 55 | 1019.7 |
| 20260904175553 | 27 | 254 | 6.4 | 14.5 | 0.00 | 0.15 | 0.15 | 57 | 1019.8 |
| 20260904175052 | 27 | 251 | 3.2 | 11.3 | 0.00 | 0.15 | 0.15 | 57 | 1019.8 |
| 20260904174550 | 27 | 344 | 3.2 | 9.7 | 0.00 | 0.15 | 0.15 | 57 | 1019.8 |
| 20260904174051 | 27 | 205 | 1.6 | 11.3 | 0.00 | 0.15 | 0.15 | 59 | 1019.8 |
| 20260904173550 | 27 | 250 | 4.8 | 11.3 | 0.00 | 0.15 | 0.15 | 58 | 1019.9 |